[[{"header":{"parameterUnit":"m.s-1","parameterCategory":1,"la1":30.2991,"la2":30.254,"lo1":-89.0895,"lo2":-89.0444,"dy":0.0017,"dx":0.0017,"nx":28,"ny":28,"refTime":"2024-12-21T09:00:00:Z","depth":0,"parameterNumber":2,"parameterNumberName":"U-component_of_WINDS"},"data":[0,0,0,0,0,0,0,0,0,0,0,0,0,0,0,0,0,0,0,0,0,0,0,0,0,0,0,0,0,0,0,0,0,0,0,0,0,0,0,0,0,0,0,0,0,0,0,0,0,0,0,0,0,0,0,0,0,0,-1.1797,-1.1798,0,-1.1869,-1.1869,-1.187,-1.1836,-1.1834,-1.1832,-1.1831,-1.1904,-1.1908,-1.1912,0,0,0,0,0,0,0,0,0,0,0,0,0,-1.163,-1.1633,-1.1797,-1.1798,-1.1799,-1.1869,-1.1869,-1.187,-1.1836,-1.1834,-1.1832,-1.183,-1.1903,-1.1908,-1.1912,0,0,0,0,0,0,0,0,0,0,0,0,0,-1.1702,-1.1634,-1.1797,-1.179,-1.179,-1.1868,-1.187,-1.1871,-1.1837,-1.1834,-1.1831,-1.1829,-1.1902,-1.1907,-1.1913,-1.2001,0,0,-1.1929,-1.1932,0,0,0,0,0,0,0,0,-1.1698,-1.1708,-1.179,-1.1791,-1.1791,-1.1841,-1.1838,-1.1915,-1.1838,-1.1819,-1.1831,-1.1827,-1.1885,-1.1892,-1.1912,-1.2005,-1.2008,-1.193,-1.1933,-1.1936,-1.1937,0,0,0,0,0,0,0,-1.1693,-1.1705,-1.1825,-1.1791,-1.1792,-1.1783,-1.1791,-1.1852,-1.1867,-1.1821,-1.1818,-1.1827,-1.1885,-1.1906,-1.1913,-1.2009,-1.193,-1.1935,-1.1938,-1.194,-1.2178,-1.2181,0,0,0,0,0,0,-1.1688,-1.1701,-1.1823,-1.1827,-1.1737,-1.1789,-1.1797,-1.1827,-1.1866,-1.1869,-1.1829,-1.1825,-1.1898,-1.1907,-1.1916,-1.2022,-1.1936,-1.1941,-1.1944,-1.2175,-1.2178,-1.2182,0,0,0,0,0,0,-1.1685,-1.17,-1.182,-1.1764,-1.1778,-1.1794,-1.1829,-1.183,-1.1852,-1.1873,-1.1875,-1.1849,-1.1896,-1.1908,-1.198,-1.2024,-1.1943,-1.1948,-1.2171,-1.2176,-1.218,-1.2236,0,0,0,0,0,0,-1.168,-1.1699,-1.1733,-1.1765,-1.1782,-1.1884,-1.1832,-1.1834,-1.1861,-1.1856,-1.1891,-1.1895,-1.1895,-1.1972,-1.1986,-1.203,-1.1952,-1.2167,-1.2173,-1.2179,-1.223,-1.2242,-1.2252,0,0,0,0,0,-1.1674,-1.1746,-1.1735,-1.175,-1.1825,-1.1887,-1.1896,-1.1896,-1.1865,-1.1899,-1.1913,-1.1893,-1.2017,-1.198,-1.1995,-1.2042,-1.2165,-1.2172,-1.2178,-1.2226,-1.224,-1.2252,0,0,0,0,0,0,-1.172,-1.175,-1.1738,-1.1822,-1.1852,-1.1881,-1.1925,-1.1911,-1.195,-1.1944,-1.1941,-1.1949,-1.2024,-1.204,-1.1998,-1.2129,-1.2086,-1.2096,-1.2117,-1.213,-1.2141,-1.2136,-1.1957,0,0,0,0,0,-1.1739,-1.1787,-1.1811,-1.1883,-1.1899,-1.1909,-1.1936,-1.1933,-1.1963,-1.1976,-1.1995,-1.2025,-1.2071,-1.2101,-1.2144,-1.2231,-1.2239,-1.2271,-1.2282,-1.229,-1.23,-1.2347,-1.2361,-1.2204,-1.2204,-1.2204,0,0,-1.1781,-1.1803,-1.1834,-1.1893,-1.1916,-1.1965,-1.192,-1.1975,-1.2011,-1.1984,-1.2054,-1.2068,-1.2102,-1.2182,-1.2219,-1.2198,-1.2344,-1.2299,-1.2306,-1.231,-1.2355,-1.237,-1.2383,-1.2208,-1.2208,-1.2207,0,0,-1.1882,-1.1904,-1.1966,-1.1989,-1.2024,-1.203,-1.2045,-1.2075,-1.2084,-1.2153,-1.2134,-1.2177,-1.2256,-1.228,-1.2303,-1.2411,-1.2395,-1.2425,-1.2482,-1.2528,-1.254,-1.2551,-1.259,-1.2604,-1.2434,-1.2434,-1.2434,0,-1.193,-1.2004,-1.2,-1.2056,-1.2082,-1.2059,-1.2122,-1.2144,-1.2191,-1.221,-1.2185,-1.2282,-1.2304,-1.2389,-1.2415,-1.2434,-1.2451,-1.2422,-1.2539,-1.255,-1.256,-1.2597,-1.2612,-1.2438,-1.2437,-1.2437,-1.2437,0,-1.2061,-1.2112,-1.2158,-1.2204,-1.2235,-1.2294,-1.2298,-1.233,-1.2323,-1.2331,-1.2402,-1.2426,-1.2473,-1.2493,-1.2487,-1.2577,-1.2563,-1.2539,-1.2495,-1.2578,-1.2613,-1.2628,-1.2443,-1.2441,-1.244,-1.244,0,0,-1.2195,-1.2236,-1.2253,-1.2273,-1.2309,-1.2348,-1.2405,-1.2451,-1.2479,-1.2511,-1.2559,-1.2625,-1.2602,-1.2628,-1.2624,-1.2664,-1.2748,-1.2635,-1.2635,-1.2656,-1.2849,-1.2868,-1.2885,-1.2737,-1.2739,-1.2741,-1.2847,0,-1.23,-1.2401,-1.2398,-1.2491,-1.2539,-1.2516,-1.2566,-1.2592,-1.2601,-1.2642,-1.2651,-1.2698,-1.2664,-1.268,-1.2718,-1.273,-1.2787,-1.2722,-1.2782,-1.2784,-1.2776,-1.2903,-1.2924,-1.3023,-1.286,-1.2862,-1.2864,0,-1.2436,-1.2473,-1.2571,-1.2598,-1.2618,-1.2663,-1.2704,-1.2743,-1.2773,-1.2776,-1.2804,-1.2793,-1.285,-1.2804,-1.2883,-1.2838,-1.2862,-1.2871,-1.2875,-1.2882,-1.283,-1.2915,-1.3054,-1.3069,-1.2885,-1.2884,-1.2882,0,-1.2526,-1.2599,-1.2667,-1.2685,-1.2718,-1.275,-1.2766,-1.2792,-1.2819,-1.2855,-1.2872,-1.2914,-1.2937,-1.2969,-1.297,-1.2936,-1.3049,-1.3003,-1.3054,-1.3054,-1.3081,-1.308,-1.3227,-1.3094,-1.3093,-1.3093,-1.3093,0,-1.2644,-1.2705,-1.2708,-1.275,-1.2818,-1.2813,-1.288,-1.2892,-1.2915,-1.2959,-1.2941,-1.2982,-1.2979,-1.3021,-1.3021,-1.3086,-1.3097,-1.3101,-1.3101,-1.3104,-1.3103,-1.3121,-1.3114,-1.3097,-1.3096,-1.3095,-1.3095,0,-1.2756,-1.276,-1.2833,-1.2858,-1.2866,-1.2915,-1.2936,-1.2976,-1.2981,-1.3037,-1.3049,-1.3059,-1.3107,-1.311,-1.3165,-1.3165,-1.3245,-1.3236,-1.3235,-1.3234,-1.3285,-1.3281,-1.345,-1.3472,-1.3324,-1.3325,-1.3326,0,-1.2832,-1.2879,-1.2908,-1.2936,-1.2953,-1.2998,-1.3026,-1.3022,-1.3051,-1.3087,-1.3122,-1.3168,-1.3205,-1.3282,-1.3294,-1.3335,-1.3328,-1.3385,-1.3335,-1.3336,-1.333,-1.3328,-1.3333,-1.3395,-1.3397,-1.3398,-1.3399,0,-1.2967,-1.2966,-1.3007,-1.3048,-1.3081,-1.3113,-1.3142,-1.3166,-1.3165,-1.3199,-1.3247,-1.3276,-1.3331,-1.3377,-1.3417,-1.3432,-1.3416,-1.3414,-1.3429,-1.3433,-1.3431,-1.3434,-1.3263,-1.3411,-1.341,-1.3409,-1.3409,-1.3408,-1.3065,-1.3105,-1.3131,-1.3177,-1.3198,-1.3226,-1.3264,-1.3274,-1.3315,-1.336,-1.3354,-1.3408,-1.3434,-1.3487,-1.3505,-1.3546,-1.3527,-1.3548,-1.3553,-1.3559,-1.3564,-1.3423,-1.3553,-1.3553,-1.3553,-1.3552,-1.3552,0,-1.3199,-1.3215,-1.3256,-1.3298,-1.3333,-1.3313,-1.3344,-1.3375,-1.3423,-1.3449,-1.3485,-1.354,-1.3583,-1.3598,-1.364,-1.367,-1.3664,-1.3682,-1.368,-1.3684,-1.3579,-1.3563,-1.3686,-1.3686,-1.3686,-1.3686,-1.3686,-1.3686,-1.3274,-1.3341,-1.3343,-1.3419,-1.3434,-1.3487,-1.3506,-1.3531,-1.3552,-1.3614,-1.365,-1.3659,-1.368,-1.3723,-1.3762,-1.3765,-1.3781,-1.3803,-1.3803,-1.3705,-1.3691,-1.3679,-1.3664,-1.3806,-1.3806,-1.3904,-1.3905,-1.3906]},{"header":{"parameterUnit":"m.s-1","parameterCategory":1,"la1":30.2991,"la2":30.254,"lo1":-89.0895,"lo2":-89.0444,"dy":0.0017,"dx":0.0017,"nx":28,"ny":28,"refTime":"2024-12-21T09:00:00:Z","depth":0,"parameterNumber":3,"parameterNumberName":"V-component_of_WINDS"},"data":[0,0,0,0,0,0,0,0,0,0,0,0,0,0,0,0,0,0,0,0,0,0,0,0,0,0,0,0,0,0,0,0,0,0,0,0,0,0,0,0,0,0,0,0,0,0,0,0,0,0,0,0,0,0,0,0,0,0,-7.6017,-7.6019,0,-7.6185,-7.6187,-7.6188,-7.6113,-7.6109,-7.6105,-7.6101,-7.6267,-7.6275,-7.6283,0,0,0,0,0,0,0,0,0,0,0,0,0,-7.5625,-7.5632,-7.6017,-7.6019,-7.6021,-7.6184,-7.6187,-7.6189,-7.6114,-7.6109,-7.6104,-7.6099,-7.6264,-7.6274,-7.6284,0,0,0,0,0,0,0,0,0,0,0,0,0,-7.5794,-7.5635,-7.6016,-7.6003,-7.6004,-7.6184,-7.6187,-7.6189,-7.6115,-7.6109,-7.6102,-7.6097,-7.6261,-7.6273,-7.6285,-7.6486,0,0,-7.6323,-7.6329,0,0,0,0,0,0,0,0,-7.5784,-7.5808,-7.6003,-7.6005,-7.6005,-7.6122,-7.6109,-7.6289,-7.6116,-7.6073,-7.6101,-7.6094,-7.6223,-7.6238,-7.6283,-7.6494,-7.6501,-7.6324,-7.6332,-7.6337,-7.6341,0,0,0,0,0,0,0,-7.5773,-7.5801,-7.6083,-7.6006,-7.6007,-7.5987,-7.6004,-7.6143,-7.618,-7.6076,-7.6071,-7.6092,-7.6223,-7.6271,-7.6287,-7.6504,-7.6324,-7.6335,-7.6343,-7.6348,-7.6886,-7.6892,0,0,0,0,0,0,-7.5762,-7.5791,-7.6078,-7.6088,-7.5878,-7.5999,-7.6018,-7.609,-7.6179,-7.6186,-7.6097,-7.6088,-7.6253,-7.6272,-7.6292,-7.6533,-7.6337,-7.6349,-7.6356,-7.6879,-7.6887,-7.6895,0,0,0,0,0,0,-7.5754,-7.5788,-7.6071,-7.5939,-7.5973,-7.6012,-7.6094,-7.6097,-7.6146,-7.6195,-7.6201,-7.6141,-7.6249,-7.6275,-7.6439,-7.6537,-7.6354,-7.6366,-7.6871,-7.6881,-7.6891,-7.7015,0,0,0,0,0,0,-7.5743,-7.5786,-7.5864,-7.5941,-7.598,-7.6217,-7.61,-7.6105,-7.6168,-7.6158,-7.6237,-7.6244,-7.6246,-7.6421,-7.6451,-7.6551,-7.6375,-7.6862,-7.6876,-7.6888,-7.7003,-7.7029,-7.7051,0,0,0,0,0,-7.5729,-7.5892,-7.5869,-7.5904,-7.608,-7.6223,-7.6245,-7.6246,-7.6177,-7.6255,-7.6286,-7.6242,-7.6522,-7.6438,-7.6472,-7.6577,-7.6856,-7.6872,-7.6887,-7.6992,-7.7024,-7.705,0,0,0,0,0,0,-7.5824,-7.5902,-7.5877,-7.607,-7.614,-7.621,-7.6309,-7.6279,-7.637,-7.6356,-7.6351,-7.6369,-7.6539,-7.6574,-7.6479,-7.6775,-7.6678,-7.6701,-7.6746,-7.6777,-7.6801,-7.6788,-7.6386,0,0,0,0,0,-7.5868,-7.598,-7.604,-7.6204,-7.6241,-7.6269,-7.6331,-7.6326,-7.6398,-7.6427,-7.647,-7.6541,-7.6644,-7.6712,-7.681,-7.7007,-7.7022,-7.7096,-7.712,-7.714,-7.7159,-7.7265,-7.7298,-7.6945,-7.6945,-7.6945,0,0,-7.5958,-7.6015,-7.6085,-7.6225,-7.6279,-7.6393,-7.6295,-7.642,-7.6504,-7.6445,-7.6603,-7.6637,-7.6715,-7.6896,-7.6978,-7.6931,-7.726,-7.7159,-7.7175,-7.7184,-7.7284,-7.7317,-7.7347,-7.6956,-7.6954,-7.6952,0,0,-7.6182,-7.6237,-7.6379,-7.6435,-7.6519,-7.6536,-7.657,-7.6645,-7.6666,-7.6824,-7.6783,-7.6881,-7.706,-7.7117,-7.7169,-7.7413,-7.7376,-7.7445,-7.7571,-7.7674,-7.7702,-7.7726,-7.7813,-7.7844,-7.7465,-7.7465,-7.7465,0,-7.6284,-7.6456,-7.6455,-7.6584,-7.6645,-7.6599,-7.6742,-7.6796,-7.6907,-7.695,-7.6895,-7.7118,-7.7167,-7.7361,-7.742,-7.7465,-7.7502,-7.7436,-7.7698,-7.7723,-7.7746,-7.7828,-7.786,-7.7473,-7.7472,-7.7471,-7.747,0,-7.6576,-7.6696,-7.68,-7.6911,-7.6984,-7.7119,-7.7136,-7.721,-7.7198,-7.722,-7.7381,-7.7438,-7.7547,-7.7592,-7.758,-7.7784,-7.7751,-7.7698,-7.76,-7.7787,-7.7864,-7.7896,-7.7484,-7.7481,-7.7479,-7.7477,0,0,-7.6865,-7.6973,-7.7011,-7.706,-7.7149,-7.724,-7.7372,-7.748,-7.7543,-7.762,-7.7729,-7.7881,-7.7832,-7.7892,-7.7886,-7.7976,-7.8165,-7.7911,-7.7913,-7.7956,-7.8391,-7.843,-7.8467,-7.814,-7.8146,-7.8151,-7.8384,0,-7.7095,-7.7328,-7.7331,-7.7544,-7.7654,-7.7612,-7.7726,-7.7791,-7.7816,-7.791,-7.7935,-7.8043,-7.7971,-7.8006,-7.8094,-7.8124,-7.8252,-7.8107,-7.824,-7.8245,-7.8222,-7.8507,-7.855,-7.8767,-7.8414,-7.8419,-7.8423,0,-7.7395,-7.7484,-7.7709,-7.7781,-7.7827,-7.7931,-7.8029,-7.8121,-7.8193,-7.8204,-7.827,-7.825,-7.8382,-7.828,-7.8461,-7.8362,-7.8416,-7.8439,-7.8447,-7.8459,-7.8345,-7.8527,-7.8836,-7.8869,-7.847,-7.8467,-7.8463,0,-7.7582,-7.7758,-7.7915,-7.7958,-7.8047,-7.812,-7.816,-7.8226,-7.829,-7.8375,-7.8417,-7.8515,-7.8569,-7.8645,-7.8651,-7.8577,-7.8833,-7.8731,-7.8844,-7.8844,-7.89,-7.8896,-7.9222,-7.8935,-7.8935,-7.8934,-7.8934,0,-7.7838,-7.7978,-7.8001,-7.8098,-7.8252,-7.8252,-7.8403,-7.8436,-7.8496,-7.8597,-7.8565,-7.8659,-7.8662,-7.8758,-7.8764,-7.8912,-7.8936,-7.8947,-7.8947,-7.895,-7.8949,-7.8986,-7.8971,-7.8943,-7.8941,-7.8939,-7.8938,0,-7.8074,-7.8095,-7.8264,-7.8334,-7.8354,-7.8465,-7.8523,-7.8614,-7.8635,-7.8763,-7.8792,-7.8824,-7.8936,-7.895,-7.9079,-7.9083,-7.9261,-7.9245,-7.9237,-7.9235,-7.9346,-7.9335,-7.9707,-7.9755,-7.9437,-7.944,-7.9443,0,-7.8236,-7.8343,-7.8424,-7.849,-7.8535,-7.8641,-7.8707,-7.871,-7.8779,-7.887,-7.895,-7.9058,-7.9145,-7.9325,-7.9358,-7.9457,-7.9443,-7.9566,-7.9457,-7.9457,-7.9444,-7.9437,-7.9447,-7.9587,-7.959,-7.9593,-7.9596,0,-7.8522,-7.8527,-7.8624,-7.8725,-7.8805,-7.8884,-7.8958,-7.9013,-7.9025,-7.9104,-7.9219,-7.9287,-7.942,-7.9528,-7.9625,-7.9663,-7.9631,-7.963,-7.9661,-7.9665,-7.9656,-7.9662,-7.9294,-7.9621,-7.9619,-7.9617,-7.9615,-7.9614,-7.8725,-7.8818,-7.889,-7.8998,-7.9055,-7.9125,-7.9214,-7.9246,-7.9342,-7.9452,-7.9447,-7.9573,-7.9641,-7.9768,-7.9813,-7.991,-7.9869,-7.9915,-7.9926,-7.9937,-7.9948,-7.9641,-7.9928,-7.9927,-7.9926,-7.9926,-7.9925,0,-7.9009,-7.9053,-7.9153,-7.9259,-7.9344,-7.9308,-7.9388,-7.9461,-7.9573,-7.964,-7.9727,-7.9858,-7.9962,-8.0003,-8.0104,-8.0174,-8.0162,-8.02,-8.0195,-8.0204,-7.9979,-7.9942,-8.0208,-8.0208,-8.0208,-8.0208,-8.0208,-8.0208,-7.9166,-7.9321,-7.9334,-7.9515,-7.9557,-7.9682,-7.9731,-7.9794,-7.9847,-7.9996,-8.0083,-8.011,-8.0166,-8.0271,-8.0364,-8.0373,-8.0411,-8.0456,-8.0459,-8.0248,-8.022,-8.0193,-8.0158,-8.0465,-8.0465,-8.0676,-8.0678,-8.0679]}]]